This is the latest recevied weather packets stored in our database for station/object XE2VP-WX. If no packets are shown the sender has not sent any weather packets the latest 1 day(s).
| Time | Temp. | Humidity | Pressure | Rain* | Wind** | Luminosity | Snow |
|---|---|---|---|---|---|---|---|
| 1778002539 | 31.11° C | 41% | 939.4 hPa | 0 mm | 0.89 m/s, 139° | 955 W/m² | - |
| 1778002479 | 31.11° C | 41% | 939.4 hPa | 0 mm | 1.34 m/s, 94° | 936 W/m² | - |
| 1778002419 | 31.11° C | 42% | 939.4 hPa | 0 mm | 0.89 m/s, 83° | 946 W/m² | - |
| 1778002359 | 31.11° C | 42% | 939.5 hPa | 0 mm | 0.89 m/s, 66° | 940 W/m² | - |
| 1778002299 | 31.11° C | 42% | 939.5 hPa | 0 mm | 0.89 m/s, 26° | 960 W/m² | - |
| 1778002239 | 31.11° C | 42% | 939.5 hPa | 0 mm | 0.89 m/s, 210° | 963 W/m² | - |
| 1778002175 | 31.11° C | 42% | 939.5 hPa | 0 mm | 0.89 m/s, 168° | 953 W/m² | - |
| 1778002115 | 31.11° C | 42% | 939.5 hPa | 0 mm | 0.89 m/s, 119° | 946 W/m² | - |
| 1778002055 | 31.11° C | 42% | 939.5 hPa | 0 mm | 0.89 m/s, 153° | 937 W/m² | - |
| 1778001995 | 31.11° C | 42% | 939.5 hPa | 0 mm | 0.89 m/s, 184° | 950 W/m² | - |
| 1778001935 | 30.56° C | 42% | 939.5 hPa | 0 mm | 0.89 m/s, 124° | 946 W/m² | - |
| 1778001875 | 30.56° C | 43% | 939.5 hPa | 0 mm | 0.89 m/s, 139° | 955 W/m² | - |
| 1778001815 | 30.56° C | 43% | 939.6 hPa | 0 mm | 0.89 m/s, 144° | 941 W/m² | - |
| 1778001755 | 30.56° C | 43% | 939.6 hPa | 0 mm | 0.89 m/s, 131° | 947 W/m² | - |
| 1778001695 | 30.56° C | 43% | 939.6 hPa | 0 mm | 0.89 m/s, 176° | 934 W/m² | - |
| 1778001634 | 30.56° C | 43% | 939.6 hPa | 0 mm | 0.89 m/s, 138° | 931 W/m² | - |
| 1778001574 | 30.56° C | 43% | 939.6 hPa | 0 mm | 0.89 m/s, 116° | 934 W/m² | - |
| 1778001515 | 30.56° C | 43% | 939.6 hPa | 0 mm | 0.89 m/s, 114° | 917 W/m² | - |
| 1778001456 | 30.56° C | 44% | 939.6 hPa | 0 mm | 0.89 m/s, 134° | 911 W/m² | - |
| 1778001395 | 30.56° C | 44% | 939.6 hPa | 0 mm | 0.89 m/s, 82° | 917 W/m² | - |
| 1778001335 | 30.56° C | 44% | 939.6 hPa | 0 mm | 0.89 m/s, 34° | 916 W/m² | - |
| 1778001275 | 30.56° C | 44% | 939.6 hPa | 0 mm | 0.89 m/s, 15° | 940 W/m² | - |
| 1778001215 | 30.56° C | 43% | 939.6 hPa | 0 mm | 0.89 m/s, 29° | 948 W/m² | - |
| 1778001156 | 30.56° C | 44% | 939.6 hPa | 0 mm | 0.89 m/s, 20° | 943 W/m² | - |
| 1778001095 | 30° C | 43% | 939.6 hPa | 0 mm | 0.89 m/s, 0° | 939 W/m² | - |
* Rain latest hour (hover to see other rain measurements)
** Current wind speed in m/s (hover to see current wind gust speed)